Year,Month,Day,Hour,Minute,Value (Times are PST for windspeed in km/hr)
2019,10,25,00,00,3.00
2019,10,25,00,01,0.40
2019,10,25,00,02,0.00
2019,10,25,00,03,0.00
2019,10,25,00,04,0.00
2019,10,25,00,05,0.00
2019,10,25,00,06,0.00
2019,10,25,00,07,0.00
2019,10,25,00,08,0.00
2019,10,25,00,09,0.80
2019,10,25,00,10,1.80
2019,10,25,00,11,6.10
2019,10,25,00,12,5.30
2019,10,25,00,13,3.20
2019,10,25,00,14,0.50
2019,10,25,00,15,0.00
2019,10,25,00,16,0.00
2019,10,25,00,17,1.40
2019,10,25,00,18,1.40
2019,10,25,00,19,0.00
2019,10,25,00,20,0.50
2019,10,25,00,21,4.50
2019,10,25,00,22,4.20
2019,10,25,00,23,0.40
2019,10,25,00,24,0.00
2019,10,25,00,25,1.60
2019,10,25,00,26,1.50
2019,10,25,00,27,0.10
2019,10,25,00,28,3.70
2019,10,25,00,29,2.40
2019,10,25,00,30,0.00
2019,10,25,00,31,0.40
2019,10,25,00,32,1.70
2019,10,25,00,33,0.20
2019,10,25,00,34,0.00
2019,10,25,00,35,0.80
2019,10,25,00,36,0.20
2019,10,25,00,37,3.50
2019,10,25,00,38,1.30
2019,10,25,00,39,1.70
2019,10,25,00,40,2.20
2019,10,25,00,41,4.50
2019,10,25,00,42,4.10
2019,10,25,00,43,6.60
2019,10,25,00,44,2.60
2019,10,25,00,45,2.50
2019,10,25,00,46,2.40
2019,10,25,00,47,4.20
2019,10,25,00,48,2.50
2019,10,25,00,49,2.00
2019,10,25,00,50,4.80
2019,10,25,00,51,5.80
2019,10,25,00,52,5.00
2019,10,25,00,53,3.20
2019,10,25,00,54,4.70
2019,10,25,00,55,3.80
2019,10,25,00,56,0.40
2019,10,25,00,57,2.50
2019,10,25,00,58,1.40
2019,10,25,00,59,0.00
2019,10,25,01,00,0.00
2019,10,25,01,01,0.00
2019,10,25,01,02,0.00
2019,10,25,01,03,0.00
2019,10,25,01,04,0.00
2019,10,25,01,05,0.00
2019,10,25,01,06,0.00
2019,10,25,01,07,0.30
2019,10,25,01,08,4.50
2019,10,25,01,09,4.20
2019,10,25,01,10,3.60
2019,10,25,01,11,2.50
2019,10,25,01,12,4.50
2019,10,25,01,13,4.10
2019,10,25,01,14,0.40
2019,10,25,01,15,0.00
2019,10,25,01,16,2.90
2019,10,25,01,17,4.30
2019,10,25,01,18,3.70
2019,10,25,01,19,1.40
2019,10,25,01,20,2.40
2019,10,25,01,21,4.40
2019,10,25,01,22,2.10
2019,10,25,01,23,0.10
2019,10,25,01,24,0.10
2019,10,25,01,25,0.40
2019,10,25,01,26,1.40
2019,10,25,01,27,2.20
2019,10,25,01,28,2.80
2019,10,25,01,29,1.80
2019,10,25,01,30,0.80
2019,10,25,01,31,4.30
2019,10,25,01,32,7.10
2019,10,25,01,33,4.30
2019,10,25,01,34,6.00
2019,10,25,01,35,5.00
2019,10,25,01,36,3.60
2019,10,25,01,37,8.80
2019,10,25,01,38,1.60
2019,10,25,01,39,4.80
2019,10,25,01,40,5.70
2019,10,25,01,41,7.60
2019,10,25,01,42,3.40
2019,10,25,01,43,4.20
2019,10,25,01,44,7.20
2019,10,25,01,45,4.50
2019,10,25,01,46,14.20
2019,10,25,01,47,6.60
2019,10,25,01,48,5.40
2019,10,25,01,49,10.20
2019,10,25,01,50,6.50
2019,10,25,01,51,4.90
2019,10,25,01,52,3.70
2019,10,25,01,53,5.70
2019,10,25,01,54,3.20
2019,10,25,01,55,7.70
2019,10,25,01,56,5.10
2019,10,25,01,57,7.40
2019,10,25,01,58,8.10
2019,10,25,01,59,7.50
2019,10,25,02,00,4.80
2019,10,25,02,01,5.00
2019,10,25,02,02,7.30
2019,10,25,02,03,8.70
2019,10,25,02,04,6.30
2019,10,25,02,05,6.70
2019,10,25,02,06,6.90
2019,10,25,02,07,7.30
2019,10,25,02,08,9.10
2019,10,25,02,09,7.30
2019,10,25,02,10,5.50
2019,10,25,02,11,5.10
2019,10,25,02,12,10.30
2019,10,25,02,13,11.40
2019,10,25,02,14,15.30
2019,10,25,02,15,14.10
2019,10,25,02,16,7.00
2019,10,25,02,17,2.30
2019,10,25,02,18,5.60
2019,10,25,02,19,12.40
2019,10,25,02,20,6.00
2019,10,25,02,21,16.50
2019,10,25,02,22,8.90
2019,10,25,02,23,4.70
2019,10,25,02,24,7.10
2019,10,25,02,25,2.70
2019,10,25,02,26,4.60
2019,10,25,02,27,8.00
2019,10,25,02,28,9.70
2019,10,25,02,29,9.40
2019,10,25,02,30,7.40
2019,10,25,02,31,8.90
2019,10,25,02,32,3.80
2019,10,25,02,33,10.10
2019,10,25,02,34,9.80
2019,10,25,02,35,12.30
2019,10,25,02,36,11.00
2019,10,25,02,37,6.90
2019,10,25,02,38,9.20
2019,10,25,02,39,10.60
2019,10,25,02,40,12.90
2019,10,25,02,41,8.60
2019,10,25,02,42,5.40
2019,10,25,02,43,12.40
2019,10,25,02,44,10.30
2019,10,25,02,45,11.10
2019,10,25,02,46,11.90
2019,10,25,02,47,8.10
2019,10,25,02,48,8.70
2019,10,25,02,49,3.80
2019,10,25,02,50,4.90
2019,10,25,02,51,13.10
2019,10,25,02,52,6.60
2019,10,25,02,53,7.00
2019,10,25,02,54,9.00
2019,10,25,02,55,5.70
2019,10,25,02,56,10.60
2019,10,25,02,57,10.90
2019,10,25,02,58,10.00
2019,10,25,02,59,6.30
2019,10,25,03,00,13.40
2019,10,25,03,01,8.30
2019,10,25,03,02,6.80
2019,10,25,03,03,4.20
2019,10,25,03,04,5.50
2019,10,25,03,05,8.20
2019,10,25,03,06,2.70
2019,10,25,03,07,7.30
2019,10,25,03,08,6.60
2019,10,25,03,09,6.70
2019,10,25,03,10,9.40
2019,10,25,03,11,7.00
2019,10,25,03,12,12.60
2019,10,25,03,13,10.00
2019,10,25,03,14,4.30
2019,10,25,03,15,7.00
2019,10,25,03,16,12.00
2019,10,25,03,17,7.60
2019,10,25,03,18,3.80
2019,10,25,03,19,7.80
2019,10,25,03,20,9.10
2019,10,25,03,21,5.90
2019,10,25,03,22,3.50
2019,10,25,03,23,7.30
2019,10,25,03,24,5.10
2019,10,25,03,25,2.80
2019,10,25,03,26,4.00
2019,10,25,03,27,6.70
2019,10,25,03,28,7.30
2019,10,25,03,29,5.90
2019,10,25,03,30,1.80
2019,10,25,03,31,3.00
2019,10,25,03,32,6.70
2019,10,25,03,33,9.00
2019,10,25,03,34,12.10
2019,10,25,03,35,7.20
2019,10,25,03,36,1.10
2019,10,25,03,37,13.10
2019,10,25,03,38,11.60
2019,10,25,03,39,7.90
2019,10,25,03,40,3.50
2019,10,25,03,41,2.60
2019,10,25,03,42,6.80
2019,10,25,03,43,4.60
2019,10,25,03,44,7.00
2019,10,25,03,45,5.30
2019,10,25,03,46,12.90
2019,10,25,03,47,6.00
2019,10,25,03,48,2.10
2019,10,25,03,49,2.70
2019,10,25,03,50,2.20
2019,10,25,03,51,2.10
2019,10,25,03,52,4.80
2019,10,25,03,53,3.10
2019,10,25,03,54,4.50
2019,10,25,03,55,3.20
2019,10,25,03,56,3.10
2019,10,25,03,57,4.50
2019,10,25,03,58,4.80
2019,10,25,03,59,8.60
2019,10,25,04,00,10.00
2019,10,25,04,01,9.80
2019,10,25,04,02,10.50
2019,10,25,04,03,16.10
2019,10,25,04,04,13.80
2019,10,25,04,05,12.50
2019,10,25,04,06,14.70
2019,10,25,04,07,14.70
2019,10,25,04,08,6.00
2019,10,25,04,09,12.40
2019,10,25,04,10,8.40
2019,10,25,04,11,9.50
2019,10,25,04,12,14.80
2019,10,25,04,13,13.70
2019,10,25,04,14,19.70
2019,10,25,04,15,16.20
2019,10,25,04,16,23.40
2019,10,25,04,17,14.10
2019,10,25,04,18,8.70
2019,10,25,04,19,13.30
2019,10,25,04,20,5.20
2019,10,25,04,21,9.40
2019,10,25,04,22,16.60
2019,10,25,04,23,21.20
2019,10,25,04,24,18.20
2019,10,25,04,25,24.00
2019,10,25,04,26,18.10
2019,10,25,04,27,27.50
2019,10,25,04,28,27.90
2019,10,25,04,29,28.00
2019,10,25,04,30,31.80
2019,10,25,04,31,25.40
2019,10,25,04,32,23.80
2019,10,25,04,33,23.10
2019,10,25,04,34,27.90
2019,10,25,04,35,32.80
2019,10,25,04,36,25.90
2019,10,25,04,37,21.80
2019,10,25,04,38,28.00
2019,10,25,04,39,32.20
2019,10,25,04,40,44.20
2019,10,25,04,41,25.60
2019,10,25,04,42,25.30
2019,10,25,04,43,28.70
2019,10,25,04,44,22.00
2019,10,25,04,45,29.10
2019,10,25,04,46,31.30
2019,10,25,04,47,22.30
2019,10,25,04,48,29.50
2019,10,25,04,49,30.90
2019,10,25,04,50,21.40
2019,10,25,04,51,21.30
2019,10,25,04,52,26.00
2019,10,25,04,53,25.40
2019,10,25,04,54,20.40
2019,10,25,04,55,21.30
2019,10,25,04,56,15.00
2019,10,25,04,57,20.10
2019,10,25,04,58,19.00
2019,10,25,04,59,16.70
2019,10,25,05,00,22.30
2019,10,25,05,01,18.80
2019,10,25,05,02,19.00
2019,10,25,05,03,17.00
2019,10,25,05,04,21.40
2019,10,25,05,05,21.70
2019,10,25,05,06,18.30
2019,10,25,05,07,24.00
2019,10,25,05,08,28.70
2019,10,25,05,09,22.40
2019,10,25,05,10,26.30
2019,10,25,05,11,19.40
2019,10,25,05,12,19.20
2019,10,25,05,13,27.40
2019,10,25,05,14,23.80
2019,10,25,05,15,16.60
2019,10,25,05,16,24.70
2019,10,25,05,17,27.80
2019,10,25,05,18,21.80
2019,10,25,05,19,23.50
2019,10,25,05,20,20.10
2019,10,25,05,21,27.70
2019,10,25,05,22,25.10
2019,10,25,05,23,28.70
2019,10,25,05,24,26.10
2019,10,25,05,25,32.10
2019,10,25,05,26,25.60
2019,10,25,05,27,16.10
2019,10,25,05,28,21.00
2019,10,25,05,29,24.60
2019,10,25,05,30,18.90
2019,10,25,05,31,21.00
2019,10,25,05,32,22.70
2019,10,25,05,33,24.60
2019,10,25,05,34,19.70
2019,10,25,05,35,21.60
2019,10,25,05,36,16.70
2019,10,25,05,37,21.80
2019,10,25,05,38,21.30
2019,10,25,05,39,25.00
2019,10,25,05,40,25.90
2019,10,25,05,41,16.30
2019,10,25,05,42,20.30
2019,10,25,05,43,19.30
2019,10,25,05,44,20.70
2019,10,25,05,45,22.20
2019,10,25,05,46,27.30
2019,10,25,05,47,25.30
2019,10,25,05,48,22.50
2019,10,25,05,49,19.70
2019,10,25,05,50,15.70
2019,10,25,05,51,22.50
2019,10,25,05,52,25.10
2019,10,25,05,53,21.70
2019,10,25,05,54,33.10
2019,10,25,05,55,32.10
2019,10,25,05,56,23.50
2019,10,25,05,57,21.50
2019,10,25,05,58,21.10
2019,10,25,05,59,20.60
2019,10,25,06,00,10.30
2019,10,25,06,01,11.30
2019,10,25,06,02,8.40
2019,10,25,06,03,19.10
2019,10,25,06,04,14.20
2019,10,25,06,05,12.50
2019,10,25,06,06,10.00
2019,10,25,06,07,10.60
2019,10,25,06,08,5.50
2019,10,25,06,09,10.60
2019,10,25,06,10,12.70
2019,10,25,06,11,7.90
2019,10,25,06,12,6.80
2019,10,25,06,13,3.50
2019,10,25,06,14,6.50
2019,10,25,06,15,10.00
2019,10,25,06,16,9.70
2019,10,25,06,17,7.30
2019,10,25,06,18,5.70
2019,10,25,06,19,5.10
2019,10,25,06,20,4.60
2019,10,25,06,21,4.30
2019,10,25,06,22,1.90
2019,10,25,06,23,2.40
2019,10,25,06,24,4.50
2019,10,25,06,25,5.10
2019,10,25,06,26,3.30
2019,10,25,06,27,2.90
2019,10,25,06,28,4.60
2019,10,25,06,29,5.10
2019,10,25,06,30,4.20
2019,10,25,06,31,5.00
2019,10,25,06,32,8.60
2019,10,25,06,33,4.00
2019,10,25,06,34,8.30
2019,10,25,06,35,9.50
2019,10,25,06,36,14.70
2019,10,25,06,37,19.30
2019,10,25,06,38,11.50
2019,10,25,06,39,7.80
2019,10,25,06,40,5.60
2019,10,25,06,41,3.30
2019,10,25,06,42,8.20
2019,10,25,06,43,6.60
2019,10,25,06,44,6.80
2019,10,25,06,45,16.00
2019,10,25,06,46,8.90
2019,10,25,06,47,12.30
2019,10,25,06,48,11.00
2019,10,25,06,49,11.70
2019,10,25,06,50,6.00
2019,10,25,06,51,5.70
2019,10,25,06,52,3.70
2019,10,25,06,53,2.70
2019,10,25,06,54,5.70
2019,10,25,06,55,7.70
2019,10,25,06,56,3.50
2019,10,25,06,57,10.60
2019,10,25,06,58,13.70
2019,10,25,06,59,19.10
2019,10,25,07,00,14.20
2019,10,25,07,01,3.20
2019,10,25,07,02,5.40
2019,10,25,07,03,6.10
2019,10,25,07,04,15.60
2019,10,25,07,05,8.80
2019,10,25,07,06,8.60
2019,10,25,07,07,9.40
2019,10,25,07,08,9.80
2019,10,25,07,09,4.70
2019,10,25,07,10,14.90
2019,10,25,07,11,9.70
2019,10,25,07,12,10.80
2019,10,25,07,13,16.40
2019,10,25,07,14,9.20
2019,10,25,07,15,7.10
2019,10,25,07,16,9.00
2019,10,25,07,17,10.60
2019,10,25,07,18,5.70
2019,10,25,07,19,6.70
2019,10,25,07,20,5.80
2019,10,25,07,21,3.40
2019,10,25,07,22,5.20
2019,10,25,07,23,8.40
2019,10,25,07,24,9.30
2019,10,25,07,25,4.00
2019,10,25,07,26,5.10
2019,10,25,07,27,8.80
2019,10,25,07,28,8.70
2019,10,25,07,29,13.70
2019,10,25,07,30,7.00
2019,10,25,07,31,3.00
2019,10,25,07,32,2.60
2019,10,25,07,33,3.70
2019,10,25,07,34,8.00
2019,10,25,07,35,12.60
2019,10,25,07,36,8.50
2019,10,25,07,37,11.70
2019,10,25,07,38,12.20
2019,10,25,07,39,19.70
2019,10,25,07,40,25.90
2019,10,25,07,41,17.80
2019,10,25,07,42,20.60
2019,10,25,07,43,13.60
2019,10,25,07,44,9.90
2019,10,25,07,45,6.70
2019,10,25,07,46,19.20
2019,10,25,07,47,12.90
2019,10,25,07,48,8.50
2019,10,25,07,49,14.20
2019,10,25,07,50,9.10
2019,10,25,07,51,11.00
2019,10,25,07,52,15.10
2019,10,25,07,53,5.50
2019,10,25,07,54,14.40
2019,10,25,07,55,9.80
2019,10,25,07,56,16.20
2019,10,25,07,57,17.80
2019,10,25,07,58,5.50
2019,10,25,07,59,7.00
2019,10,25,08,00,13.20
2019,10,25,08,01,8.10
2019,10,25,08,02,11.30
2019,10,25,08,03,11.60
2019,10,25,08,04,4.40
2019,10,25,08,05,5.10
2019,10,25,08,06,13.50
2019,10,25,08,07,9.30
2019,10,25,08,08,5.50
2019,10,25,08,09,16.10
2019,10,25,08,10,10.10
2019,10,25,08,11,7.90
2019,10,25,08,12,10.30
2019,10,25,08,13,8.80
2019,10,25,08,14,9.60
2019,10,25,08,15,12.20
2019,10,25,08,16,5.80
2019,10,25,08,17,5.60
2019,10,25,08,18,4.60
2019,10,25,08,19,13.40
2019,10,25,08,20,18.70
2019,10,25,08,21,12.20
2019,10,25,08,22,4.20
2019,10,25,08,23,4.00
2019,10,25,08,24,7.20
2019,10,25,08,25,10.10
2019,10,25,08,26,11.60
2019,10,25,08,27,11.50
2019,10,25,08,28,9.50
2019,10,25,08,29,4.60
2019,10,25,08,30,8.90
2019,10,25,08,31,8.30
2019,10,25,08,32,3.60
2019,10,25,08,33,4.80
2019,10,25,08,34,2.10
2019,10,25,08,35,0.00
2019,10,25,08,36,0.00
2019,10,25,08,37,0.00
2019,10,25,08,38,0.00
2019,10,25,08,39,0.00
2019,10,25,08,40,0.00
2019,10,25,08,41,4.10
2019,10,25,08,42,3.50
2019,10,25,08,43,0.80
2019,10,25,08,44,4.50
2019,10,25,08,45,4.90
2019,10,25,08,46,4.60
2019,10,25,08,47,7.10
2019,10,25,08,48,12.30
2019,10,25,08,49,7.50
2019,10,25,08,50,4.50
2019,10,25,08,51,5.50
2019,10,25,08,52,8.40
2019,10,25,08,53,8.10
2019,10,25,08,54,5.10
2019,10,25,08,55,3.80
2019,10,25,08,56,6.00
2019,10,25,08,57,9.10
2019,10,25,08,58,8.10
2019,10,25,08,59,8.00
2019,10,25,09,00,8.90
2019,10,25,09,01,5.40
2019,10,25,09,02,4.90
2019,10,25,09,03,5.50
2019,10,25,09,04,4.50
2019,10,25,09,05,6.20
2019,10,25,09,06,5.30
2019,10,25,09,07,4.60
2019,10,25,09,08,3.80
2019,10,25,09,09,5.10
2019,10,25,09,10,5.40
2019,10,25,09,11,8.50
2019,10,25,09,12,12.60
2019,10,25,09,13,7.80
2019,10,25,09,14,6.90
2019,10,25,09,15,6.40
2019,10,25,09,16,4.40
2019,10,25,09,17,8.70
2019,10,25,09,18,7.50
2019,10,25,09,19,5.50
2019,10,25,09,20,3.90
2019,10,25,09,21,7.10
2019,10,25,09,22,4.60
2019,10,25,09,23,5.70
2019,10,25,09,24,2.90
2019,10,25,09,25,2.20
2019,10,25,09,26,2.10
2019,10,25,09,27,2.20
2019,10,25,09,28,2.30
2019,10,25,09,29,4.40
2019,10,25,09,30,4.80
2019,10,25,09,31,2.90
2019,10,25,09,32,3.90
2019,10,25,09,33,9.10
2019,10,25,09,34,9.40
2019,10,25,09,35,6.90
2019,10,25,09,36,6.80
2019,10,25,09,37,4.30
2019,10,25,09,38,10.00
2019,10,25,09,39,2.40
2019,10,25,09,40,3.20
2019,10,25,09,41,4.80
2019,10,25,09,42,5.30
2019,10,25,09,43,3.30
2019,10,25,09,44,6.10
2019,10,25,09,45,7.30
2019,10,25,09,46,4.60
2019,10,25,09,47,4.40
2019,10,25,09,48,11.90
2019,10,25,09,49,7.70
2019,10,25,09,50,2.30
2019,10,25,09,51,4.30
2019,10,25,09,52,4.90
2019,10,25,09,53,5.40
2019,10,25,09,54,3.40
2019,10,25,09,55,6.40
2019,10,25,09,56,5.10
2019,10,25,09,57,3.90
2019,10,25,09,58,1.80
2019,10,25,09,59,4.20
2019,10,25,10,00,7.50
2019,10,25,10,01,3.90
2019,10,25,10,02,4.00
2019,10,25,10,03,5.40
2019,10,25,10,04,4.30
2019,10,25,10,05,8.90
2019,10,25,10,06,7.40
2019,10,25,10,07,6.70
2019,10,25,10,08,5.00
2019,10,25,10,09,6.70
2019,10,25,10,10,7.60
2019,10,25,10,11,10.70
2019,10,25,10,12,13.10
2019,10,25,10,13,12.30
2019,10,25,10,14,6.40
2019,10,25,10,15,4.20
2019,10,25,10,16,4.00
2019,10,25,10,17,1.60
2019,10,25,10,18,7.70
2019,10,25,10,19,7.20
2019,10,25,10,20,5.20
2019,10,25,10,21,4.50
2019,10,25,10,22,7.60
2019,10,25,10,23,4.50
2019,10,25,10,24,4.20
2019,10,25,10,25,3.40
2019,10,25,10,26,3.50
2019,10,25,10,27,2.70
2019,10,25,10,28,2.40
2019,10,25,10,29,3.30
2019,10,25,10,30,3.00
2019,10,25,10,31,4.50
2019,10,25,10,32,7.30
2019,10,25,10,33,8.20
2019,10,25,10,34,5.70
2019,10,25,10,35,6.00
2019,10,25,10,36,3.70
2019,10,25,10,37,3.90
2019,10,25,10,38,4.40
2019,10,25,10,39,5.80
2019,10,25,10,40,2.70
2019,10,25,10,41,7.50
2019,10,25,10,42,6.80
2019,10,25,10,43,7.30
2019,10,25,10,44,4.90
2019,10,25,10,45,5.80
2019,10,25,10,46,3.50
2019,10,25,10,47,6.90
2019,10,25,10,48,3.70
2019,10,25,10,49,4.30
2019,10,25,10,50,5.80
2019,10,25,10,51,8.50
2019,10,25,10,52,10.10
2019,10,25,10,53,9.40
2019,10,25,10,54,5.40
2019,10,25,10,55,3.10
2019,10,25,10,56,11.80
2019,10,25,10,57,7.50
2019,10,25,10,58,7.40
2019,10,25,10,59,14.80
2019,10,25,11,00,7.60
2019,10,25,11,01,5.40
2019,10,25,11,02,5.90
2019,10,25,11,03,13.50
2019,10,25,11,04,5.10
2019,10,25,11,05,7.30
2019,10,25,11,06,5.00
2019,10,25,11,07,16.20
2019,10,25,11,08,9.60
2019,10,25,11,09,8.60
2019,10,25,11,10,6.90
2019,10,25,11,11,6.00
2019,10,25,11,12,5.00
2019,10,25,11,13,6.60
2019,10,25,11,14,4.70
2019,10,25,11,15,5.90
2019,10,25,11,16,3.80
2019,10,25,11,17,15.40
2019,10,25,11,18,12.90
2019,10,25,11,19,15.70
2019,10,25,11,20,6.50
2019,10,25,11,21,7.50
2019,10,25,11,22,10.10
2019,10,25,11,23,4.00
2019,10,25,11,24,3.00
2019,10,25,11,25,11.50
2019,10,25,11,26,10.60
2019,10,25,11,27,13.70
2019,10,25,11,28,6.60
2019,10,25,11,29,7.80
2019,10,25,11,30,5.20
2019,10,25,11,31,9.60
2019,10,25,11,32,14.80
2019,10,25,11,33,13.40
2019,10,25,11,34,9.50
2019,10,25,11,35,15.30
2019,10,25,11,36,13.90
2019,10,25,11,37,6.70
2019,10,25,11,38,11.00
2019,10,25,11,39,14.70
2019,10,25,11,40,14.10
2019,10,25,11,41,15.00
2019,10,25,11,42,13.20
2019,10,25,11,43,10.50
2019,10,25,11,44,15.30
2019,10,25,11,45,8.30
2019,10,25,11,46,3.00
2019,10,25,11,47,19.10
2019,10,25,11,48,13.30
2019,10,25,11,49,10.60
2019,10,25,11,50,7.70
2019,10,25,11,51,6.10
2019,10,25,11,52,9.50
2019,10,25,11,53,10.80
2019,10,25,11,54,15.20
2019,10,25,11,55,9.20
2019,10,25,11,56,11.80
2019,10,25,11,57,10.80
2019,10,25,11,58,5.30
2019,10,25,11,59,13.50
2019,10,25,12,00,12.00
2019,10,25,12,01,6.10
2019,10,25,12,02,22.70
2019,10,25,12,03,11.30
2019,10,25,12,04,11.80
2019,10,25,12,05,6.30
2019,10,25,12,06,10.10
2019,10,25,12,07,5.80
2019,10,25,12,08,14.10
2019,10,25,12,09,15.00
2019,10,25,12,10,19.10
2019,10,25,12,11,16.60
2019,10,25,12,12,11.90
2019,10,25,12,13,10.90
2019,10,25,12,14,6.30
2019,10,25,12,15,7.00
2019,10,25,12,16,2.80
2019,10,25,12,17,5.60
2019,10,25,12,18,13.20
2019,10,25,12,19,10.30
2019,10,25,12,20,14.80
2019,10,25,12,21,9.70
2019,10,25,12,22,12.00
2019,10,25,12,23,13.70
2019,10,25,12,24,11.70
2019,10,25,12,25,12.60
2019,10,25,12,26,9.80
2019,10,25,12,27,5.70
2019,10,25,12,28,7.40
2019,10,25,12,29,11.80
2019,10,25,12,30,8.90
2019,10,25,12,31,10.60
2019,10,25,12,32,19.20
2019,10,25,12,33,20.50
2019,10,25,12,34,9.90
2019,10,25,12,35,12.00
2019,10,25,12,36,12.20
2019,10,25,12,37,8.30
2019,10,25,12,38,15.00
2019,10,25,12,39,3.30
2019,10,25,12,40,3.30
2019,10,25,12,41,2.10
2019,10,25,12,42,4.80
2019,10,25,12,43,7.70
2019,10,25,12,44,4.70
2019,10,25,12,45,3.90
2019,10,25,12,46,5.10
2019,10,25,12,47,4.90
2019,10,25,12,48,1.10
2019,10,25,12,49,5.40
2019,10,25,12,50,8.60
2019,10,25,12,51,5.70
2019,10,25,12,52,7.90
2019,10,25,12,53,4.90
2019,10,25,12,54,3.90
2019,10,25,12,55,4.80
2019,10,25,12,56,4.70
2019,10,25,12,57,7.70
2019,10,25,12,58,6.60
2019,10,25,12,59,10.10
2019,10,25,13,00,13.60
2019,10,25,13,01,10.60
2019,10,25,13,02,19.20
2019,10,25,13,03,6.70
2019,10,25,13,04,12.10
2019,10,25,13,05,12.90
2019,10,25,13,06,15.30
2019,10,25,13,07,15.10
2019,10,25,13,08,13.40
2019,10,25,13,09,12.00
2019,10,25,13,10,9.80
2019,10,25,13,11,11.90
2019,10,25,13,12,6.00
2019,10,25,13,13,8.00
2019,10,25,13,14,4.20
2019,10,25,13,15,9.80
2019,10,25,13,16,16.80
2019,10,25,13,17,16.50
2019,10,25,13,18,8.00
2019,10,25,13,19,8.90
2019,10,25,13,20,4.30
2019,10,25,13,21,4.80
2019,10,25,13,22,7.00
2019,10,25,13,23,8.10
2019,10,25,13,24,8.80
2019,10,25,13,25,5.40
2019,10,25,13,26,7.40
2019,10,25,13,27,8.50
2019,10,25,13,28,8.30
2019,10,25,13,29,9.80
2019,10,25,13,30,12.50
2019,10,25,13,31,6.70
2019,10,25,13,32,4.50
2019,10,25,13,33,4.00
2019,10,25,13,34,2.70
2019,10,25,13,35,3.30
2019,10,25,13,36,6.00
2019,10,25,13,37,6.90
2019,10,25,13,38,9.70
2019,10,25,13,39,10.60
2019,10,25,13,40,4.90
2019,10,25,13,41,5.10
2019,10,25,13,42,5.90
2019,10,25,13,43,4.10
2019,10,25,13,44,4.50
2019,10,25,13,45,3.00
2019,10,25,13,46,14.20
2019,10,25,13,47,9.60
2019,10,25,13,48,9.80
2019,10,25,13,49,8.40
2019,10,25,13,50,5.60
2019,10,25,13,51,5.40
2019,10,25,13,52,14.30
2019,10,25,13,53,7.30
2019,10,25,13,54,15.10
2019,10,25,13,55,12.70
2019,10,25,13,56,9.80
2019,10,25,13,57,14.10
2019,10,25,13,58,9.20
2019,10,25,13,59,5.50
2019,10,25,14,00,9.40
2019,10,25,14,01,13.00
2019,10,25,14,02,4.70
2019,10,25,14,03,10.50
2019,10,25,14,04,13.40
2019,10,25,14,05,16.00
2019,10,25,14,06,13.20
2019,10,25,14,07,11.90
2019,10,25,14,08,12.80
2019,10,25,14,09,7.30
2019,10,25,14,10,7.00
2019,10,25,14,11,7.60
2019,10,25,14,12,7.20
2019,10,25,14,13,5.90
2019,10,25,14,14,5.10
2019,10,25,14,15,6.60
2019,10,25,14,16,9.60
2019,10,25,14,17,2.80
2019,10,25,14,18,3.30
2019,10,25,14,19,5.70
2019,10,25,14,20,5.00
2019,10,25,14,21,6.20
2019,10,25,14,22,8.00
2019,10,25,14,23,11.70
2019,10,25,14,24,7.60
2019,10,25,14,25,5.40
2019,10,25,14,26,7.50
2019,10,25,14,27,6.60
2019,10,25,14,28,6.00
2019,10,25,14,29,6.90
2019,10,25,14,30,7.70
2019,10,25,14,31,12.80
2019,10,25,14,32,15.50
2019,10,25,14,33,12.20
2019,10,25,14,34,9.40
2019,10,25,14,35,6.00
2019,10,25,14,36,8.10
2019,10,25,14,37,6.40
2019,10,25,14,38,10.50
2019,10,25,14,39,7.70
2019,10,25,14,40,11.70
2019,10,25,14,41,8.20
2019,10,25,14,42,6.10
2019,10,25,14,43,7.00
2019,10,25,14,44,3.50
2019,10,25,14,45,6.80
2019,10,25,14,46,4.80
2019,10,25,14,47,4.80
2019,10,25,14,48,8.60
2019,10,25,14,49,13.30
2019,10,25,14,50,10.90
2019,10,25,14,51,7.90
2019,10,25,14,52,9.70
2019,10,25,14,53,8.60
2019,10,25,14,54,5.80
2019,10,25,14,55,5.40
2019,10,25,14,56,5.10
2019,10,25,14,57,2.50
2019,10,25,14,58,5.60
2019,10,25,14,59,7.90
2019,10,25,15,00,1.90
2019,10,25,15,01,8.60
2019,10,25,15,02,10.00
2019,10,25,15,03,14.20
2019,10,25,15,04,7.70
2019,10,25,15,05,10.00
2019,10,25,15,06,9.40
2019,10,25,15,07,4.60
2019,10,25,15,08,10.50
2019,10,25,15,09,9.90
2019,10,25,15,10,9.80
2019,10,25,15,11,10.80
2019,10,25,15,12,10.80
2019,10,25,15,13,22.30
2019,10,25,15,14,12.00
2019,10,25,15,15,12.40
2019,10,25,15,16,9.50
2019,10,25,15,17,14.80
2019,10,25,15,18,12.00
2019,10,25,15,19,8.00
2019,10,25,15,20,6.20
2019,10,25,15,21,6.30
2019,10,25,15,22,2.20
2019,10,25,15,23,10.30
2019,10,25,15,24,6.50
2019,10,25,15,25,3.70
2019,10,25,15,26,7.60
2019,10,25,15,27,11.70
2019,10,25,15,28,9.20
2019,10,25,15,29,11.00
2019,10,25,15,30,11.60
2019,10,25,15,31,5.70
2019,10,25,15,32,7.30
2019,10,25,15,33,9.70
2019,10,25,15,34,8.20
2019,10,25,15,35,7.30
2019,10,25,15,36,3.90
2019,10,25,15,37,5.90
2019,10,25,15,38,4.10
2019,10,25,15,39,2.00
2019,10,25,15,40,2.50
2019,10,25,15,41,7.70
2019,10,25,15,42,16.50
2019,10,25,15,43,11.10
2019,10,25,15,44,9.10
2019,10,25,15,45,8.90
2019,10,25,15,46,15.90
2019,10,25,15,47,14.10
2019,10,25,15,48,16.40
2019,10,25,15,49,18.90
2019,10,25,15,50,11.10
2019,10,25,15,51,14.90
2019,10,25,15,52,10.00
2019,10,25,15,53,15.40
2019,10,25,15,54,10.50
2019,10,25,15,55,13.10
2019,10,25,15,56,11.10
2019,10,25,15,57,15.10
2019,10,25,15,58,12.20
2019,10,25,15,59,16.50
2019,10,25,16,00,15.60
2019,10,25,16,01,20.50
2019,10,25,16,02,11.60
2019,10,25,16,03,10.70
2019,10,25,16,04,10.70
2019,10,25,16,05,10.50
2019,10,25,16,06,15.20
2019,10,25,16,07,8.90
2019,10,25,16,08,7.90
2019,10,25,16,09,5.60
2019,10,25,16,10,8.70
2019,10,25,16,11,11.80
2019,10,25,16,12,5.90
2019,10,25,16,13,6.90
2019,10,25,16,14,9.70
2019,10,25,16,15,10.00
2019,10,25,16,16,12.80
2019,10,25,16,17,9.20
2019,10,25,16,18,14.20
2019,10,25,16,19,8.20
2019,10,25,16,20,8.00
2019,10,25,16,21,6.90
2019,10,25,16,22,8.30
2019,10,25,16,23,9.20
2019,10,25,16,24,5.40
2019,10,25,16,25,7.70
2019,10,25,16,26,12.80
2019,10,25,16,27,4.50
2019,10,25,16,28,5.70
2019,10,25,16,29,7.00
2019,10,25,16,30,15.50
2019,10,25,16,31,5.20
2019,10,25,16,32,4.00
2019,10,25,16,33,6.20
2019,10,25,16,34,7.50
2019,10,25,16,35,3.60
2019,10,25,16,36,5.00
2019,10,25,16,37,5.60
2019,10,25,16,38,3.00
2019,10,25,16,39,5.70
2019,10,25,16,40,7.70
2019,10,25,16,41,14.20
2019,10,25,16,42,10.40
2019,10,25,16,43,4.80
2019,10,25,16,44,5.70
2019,10,25,16,45,8.80
2019,10,25,16,46,5.30
2019,10,25,16,47,13.80
2019,10,25,16,48,16.70
2019,10,25,16,49,9.50
2019,10,25,16,50,6.40
2019,10,25,16,51,5.40
2019,10,25,16,52,8.80
2019,10,25,16,53,10.40
2019,10,25,16,54,8.60
2019,10,25,16,55,7.00
2019,10,25,16,56,4.60
2019,10,25,16,57,5.80
2019,10,25,16,58,6.00
2019,10,25,16,59,11.90
2019,10,25,17,00,9.10
2019,10,25,17,01,8.10
2019,10,25,17,02,5.10
2019,10,25,17,03,9.10
2019,10,25,17,04,9.70
2019,10,25,17,05,2.50
2019,10,25,17,06,11.00
2019,10,25,17,07,8.90
2019,10,25,17,08,10.90
2019,10,25,17,09,11.10
2019,10,25,17,10,6.40
2019,10,25,17,11,3.20
2019,10,25,17,12,8.80
2019,10,25,17,13,5.40
2019,10,25,17,14,8.00
2019,10,25,17,15,9.70
2019,10,25,17,16,3.90
2019,10,25,17,17,3.20
2019,10,25,17,18,2.10
2019,10,25,17,19,6.90
2019,10,25,17,20,3.80
2019,10,25,17,21,3.80
2019,10,25,17,22,8.20
2019,10,25,17,23,6.60
2019,10,25,17,24,9.20
2019,10,25,17,25,4.80
2019,10,25,17,26,4.20
2019,10,25,17,27,3.90
2019,10,25,17,28,5.10
2019,10,25,17,29,5.70
2019,10,25,17,30,9.60
2019,10,25,17,31,9.50
2019,10,25,17,32,3.20
2019,10,25,17,33,3.70
2019,10,25,17,34,3.50
2019,10,25,17,35,1.80
2019,10,25,17,36,0.40
2019,10,25,17,37,3.90
2019,10,25,17,38,4.00
2019,10,25,17,39,1.40
2019,10,25,17,40,0.00
2019,10,25,17,41,0.00
2019,10,25,17,42,8.80
2019,10,25,17,43,12.80
2019,10,25,17,44,7.80
2019,10,25,17,45,6.60
2019,10,25,17,46,11.00
2019,10,25,17,47,8.00
2019,10,25,17,48,3.70
2019,10,25,17,49,2.70
2019,10,25,17,50,2.40